SL-14 DEB, 45459

Orbit data source: Space-Track

SL-14 DEB, 45459 is space debris in LEO originally from a launch on Thu, 15 Aug 1991 UTC launched from the Plesetsk Missile And Space Complex (PKMTR). Debris objects in space refer to the collection of defunct objects orbiting the Earth. Examples of debris include non-operational satellites, rocket bodies, and fragments generated from explosions, collisions, or faulty payload assembly.

Loading next visibility...
Identifier
45459, 1991-056CT
Orbit
LEO
Country
Flag of CISCIS
Related business
Manufacturer
Unknown
Mission
Spacecraft
Bus & Motor
Unknown
Mass
Unknown
Launch date (UTC)
1991-08-15 (35 years ago)
Launch vehicle
Unknown
Launch site
Plesetsk Missile And Space Complex (PKMTR)
Object type
Payload
Rocket body
Debris
Shape & HBR
Unknown shape, 0.1 m
Radar Cross Section
Small (<0.1 m²)

Expand to show TLE details & history
Last TLE update: 4 days ago

TLE from 4 days ago
0 SL-14 DEB
1 45459U 91056CT  26171.89642484  .00010382  00000-0  85058-2 0  9992
2 45459  82.5932  41.8690 0142871  75.8645 285.8343 13.84723613176953
Epoch: 2026-06-20T21:30Z
TLE epoch observation values (Epoch: 2026-06-20T21:30:51.106Z)
Latitude
-0.00007°
Longitude
170.05158°
Altitude
922.915 km
Speed
7.404 km/s
True Right ascension
02h 47m 28s
True Declination
0° 00' 00"
Sunlit
Object was in daylight at epoch
Visualization orbit readout
Latitude
Unknown
Longitude
Unknown
Altitude
Unknown
Speed
Unknown
Apparent Right ascension
Unknown
Apparent Declination
Unknown
Sunlit
N/A
Visualization observer readout
Local Sidereal Time
21:54:53
Azimuth
Unknown
Elevation
Unknown
Doppler factor
Unknown
Orbital elements
Apogee altitude
1,048.945 km
Perigee altitude
839.712 km
Semi-major axis
7,322.466 km
Eccentricity
0.01429
Inclination
82.5932°
RAAN
41.869°
Arg. of periapsis
75.8645°
True anomaly
284.25173°
Mean anomaly
285.8343°
Eccentric anomaly
285.04376°
Mean motion
3.46383 °/min
Orbital period
103.93 mins
BSTAR
0.0085058
Loading maneuver chart data...
Computing Atmospheric mass density...
Loading historical data...
Loading historical data...
Loading historical data...
Loading historical data...
Loading historical data...
Loading historical data...
Loading historical data...

Documentation

Showing up to 5 results
|